Time,TemperatureF,DewpointF,PressureIn,WindDirection,WindDirectionDegrees,WindSpeedMPH,WindSpeedGustMPH,Humidity,HourlyPrecipIn,Conditions,Clouds,dailyrainin,SolarRadiationWatts/m^2,SoftwareType,DateUTC
2013-09-01 00:02:00,63.0,35.0,-100.00,SSW,210,6.0,8.0,35,-99.99,,,0.00,0.000000,,2013-09-01 07:02:00,
2013-09-01 00:42:00,62.0,34.0,-100.00,SW,220,2.0,7.0,35,0.00,,,0.00,0.000000,,2013-09-01 07:42:00,
2013-09-01 00:52:00,62.0,34.0,-100.00,SW,220,2.0,7.0,35,0.00,,,0.00,0.000000,,2013-09-01 07:52:00,
2013-09-01 01:02:00,62.0,34.0,-100.00,SW,220,2.0,7.0,35,0.00,,,0.00,0.000000,,2013-09-01 08:02:00,
2013-09-01 02:53:00,61.0,33.0,-100.00,SSW,207,5.0,7.0,35,0.00,,,0.00,0.000000,,2013-09-01 09:53:00,
2013-09-01 03:03:00,61.0,33.0,-100.00,SSW,207,5.0,7.0,35,0.00,,,0.00,0.000000,,2013-09-01 10:03:00,
2013-09-01 03:53:00,59.0,37.0,-100.00,SSW,206,6.0,10.0,44,-99.99,,,0.00,0.000000,,2013-09-01 10:53:00,
2013-09-01 04:02:00,59.0,37.0,-100.00,SSW,206,6.0,10.0,44,-99.99,,,0.00,0.000000,,2013-09-01 11:02:00,
2013-09-01 04:42:00,58.0,38.0,-100.00,North,8,1.0,12.0,48,0.00,,,0.00,0.000000,,2013-09-01 11:42:00,
2013-09-01 04:52:00,58.0,38.0,-100.00,North,8,1.0,12.0,48,0.00,,,0.00,0.000000,,2013-09-01 11:52:00,
2013-09-01 05:01:00,58.0,38.0,-100.00,North,8,1.0,12.0,48,0.00,,,0.00,0.000000,,2013-09-01 12:01:00,
2013-09-01 05:52:00,59.0,39.0,-100.00,South,181,3.0,6.0,48,-99.99,,,0.00,0.000000,,2013-09-01 12:52:00,
2013-09-01 06:01:00,59.0,39.0,-100.00,South,181,3.0,6.0,48,-99.99,,,0.00,0.000000,,2013-09-01 13:01:00,
2013-09-01 06:42:00,59.0,38.0,-100.00,SSW,198,4.0,8.0,46,0.00,,,0.00,0.000000,,2013-09-01 13:42:00,
2013-09-01 06:52:00,59.0,38.0,-100.00,SSW,198,4.0,8.0,46,0.00,,,0.00,0.000000,,2013-09-01 13:52:00,
2013-09-01 07:02:00,59.0,38.0,-100.00,SSW,198,4.0,8.0,46,0.00,,,0.00,0.000000,,2013-09-01 14:02:00,
2013-09-01 07:42:00,60.0,43.0,-100.00,SSW,209,5.0,8.0,54,0.00,,,0.00,11.000000,,2013-09-01 14:42:00,
2013-09-01 07:52:00,60.0,43.0,-100.00,SSW,209,5.0,8.0,54,0.00,,,0.00,11.000000,,2013-09-01 14:52:00,
2013-09-01 08:02:00,60.0,43.0,-100.00,SSW,209,5.0,8.0,54,0.00,,,0.00,11.000000,,2013-09-01 15:02:00,
2013-09-01 08:45:00,62.0,47.0,-100.00,SSW,207,3.0,8.0,58,0.00,,,0.00,79.000000,,2013-09-01 15:45:00,
2013-09-01 08:55:00,62.0,47.0,-100.00,SSW,207,3.0,8.0,58,0.00,,,0.00,79.000000,,2013-09-01 15:55:00,
2013-09-01 09:05:00,62.0,47.0,-100.00,SSW,207,3.0,8.0,58,0.00,,,0.00,79.000000,,2013-09-01 16:05:00,
2013-09-01 09:43:00,66.0,45.0,-100.00,SSW,212,3.0,5.0,47,0.00,,,0.00,200.000000,,2013-09-01 16:43:00,